FENGYUN 1C DEB, 38130

Orbit data source: Space-Track

FENGYUN 1C DEB, 38130 is space debris in SSO originally from a launch on Mon, 10 May 1999 UTC launched from the Taiyaun Space Center, China (TSC). Fengyun 1C debris stems from the Chinese weather satellite Fengyun-1C, which was intentionally destroyed by a Chinese anti-satellite missile in 2007. This event dramatically increased the amount of space debris, with thousands of trackable fragments posing hazards to satellites and human spaceflight. The Fengyun 1C debris cloud has become a focal point in discussions about space sustainability and the need for international regulations to prevent the creation of new debris.

Loading next visibility...
Identifier
38130, 1999-025EQB
Orbit
SSO
Country
Flag of CNCN / PRC
Related business
Manufacturer
Unknown
Mission
Spacecraft
Bus & Motor
Unknown
Mass
Unknown
Launch date (UTC)
1999-05-10 (27 years ago)
Launch vehicle
Unknown
Launch site
Taiyaun Space Center, China (TSC)
Object type
Payload
Rocket body
Debris
Shape & HBR
Unknown shape, 0.1 m
Radar Cross Section
Small (<0.1 m²)

Expand to show TLE details & history
Last TLE update: 3 weeks ago

TLE from 3 weeks ago
0 FENGYUN 1C DEB
1 38130U 99025EQB 25332.38822327  .00001933  00000-0  16964-2 0  9994
2 38130  98.6035  25.4413 0208516 263.5047  94.2329 13.77205950690852
Epoch: 2025-11-28T09:19Z
TLE epoch observation values (Epoch: 2025-11-28T09:19:02.490Z)
Latitude
-0.00002°
Longitude
178.14943°
Altitude
991.162 km
Speed
7.349 km/s
True Right ascension
01h 41m 45s
True Declination
0° 00' 00"
Sunlit
Object was in full shadow at epoch
Visualization orbit readout
Latitude
Unknown
Longitude
Unknown
Altitude
Unknown
Speed
Unknown
Apparent Right ascension
Unknown
Apparent Declination
Unknown
Sunlit
N/A
Visualization observer readout
Local Sidereal Time
23:53:39
Azimuth
Unknown
Elevation
Unknown
Doppler factor
Unknown
Orbital elements
Apogee altitude
1,124.265 km
Perigee altitude
817.781 km
Semi-major axis
7,349.16 km
Eccentricity
0.02085
Inclination
98.6035°
RAAN
25.4413°
Arg. of periapsis
263.5047°
True anomaly
96.61054°
Mean anomaly
94.2329°
Eccentric anomaly
95.42226°
Mean motion
3.44498 °/min
Orbital period
104.5 mins
BSTAR
0.0016964
Loading maneuver chart data...
Computing Atmospheric mass density...

Documentation

Showing up to 5 results
|